• In Hungary
  • List of Countries
  • For 7 days
  • Water Temperature
  • Satellite Maps
  • Weather Map
  • News
  • Weather Widgets
  • user-avatar
    Login

    Hourly Weather Mlodow

    Today, 18 November, Saturday

    Time Temperature Precipitation Wind Pressure Humidity
    00:00 +3°C° 0.3 mm 1 mps 723 mmHg 94%
    01:00 +3°C° 0 mm 1 mps 723 mmHg 94%
    02:00 +3°C° 0.3 mm 1 mps 723 mmHg 95%
    03:00 +3°C° 0.3 mm 1 mps 723 mmHg 95%
    04:00 +3°C° 0.3 mm 1 mps 722 mmHg 95%
    05:00 +3°C° 0.2 mm 1 mps 722 mmHg 96%
    06:00 +3°C° 0.2 mm 1 mps 722 mmHg 96%
    07:00 +3°C° 0 mm 1 mps 722 mmHg 96%
    08:00 +3°C° 0.1 mm 1 mps 722 mmHg 93%
    09:00 +4°C° 0.1 mm 1 mps 722 mmHg 91%
    10:00 +4°C° 0.1 mm 1 mps 722 mmHg 88%
    11:00 +5°C° 0 mm 1 mps 722 mmHg 86%
    12:00 +5°C° 0 mm 1 mps 721 mmHg 84%
    13:00 +5°C° 0 mm 1 mps 721 mmHg 82%
    14:00 +4°C° 0 mm 1 mps 720 mmHg 84%
    15:00 +4°C° 0 mm 1 mps 720 mmHg 87%
    16:00 +3°C° 0 mm 1 mps 719 mmHg 89%
    17:00 +3°C° 0 mm 1 mps 719 mmHg 90%
    18:00 +2°C° 0 mm 1 mps 719 mmHg 91%
    19:00 +2°C° 0 mm 1 mps 718 mmHg 91%
    20:00 +1°C° 0 mm 1 mps 718 mmHg 91%
    21:00 -1°C° 0 mm 2 mps 718 mmHg 90%
    22:00 -1°C° 0 mm 2 mps 717 mmHg 89%
    23:00 -1°C° 0 mm 2 mps 717 mmHg 89%

    Tomorrow, 19 November, Sunday

    Time Temperature Precipitation Wind Pressure Humidity
    00:00 -1°C° 0 mm 2 mps 717 mmHg 88%
    01:00 -1°C° 0 mm 2 mps 716 mmHg 88%
    02:00 -1°C° 0 mm 2 mps 716 mmHg 88%
    03:00 -1°C° 0 mm 2 mps 716 mmHg 89%
    04:00 -1°C° 0 mm 2 mps 715 mmHg 89%
    05:00 -1°C° 0.1 mm 2 mps 715 mmHg 89%
    06:00 -1°C° 0.1 mm 2 mps 715 mmHg 89%
    07:00 -1°C° 0.1 mm 2 mps 715 mmHg 90%
    08:00 +1°C° 0 mm 2 mps 715 mmHg 85%
    09:00 +2°C° 0 mm 2 mps 716 mmHg 79%
    10:00 +2°C° 0 mm 3 mps 716 mmHg 74%
    11:00 +2°C° 0 mm 3 mps 716 mmHg 72%
    12:00 +3°C° 0 mm 3 mps 716 mmHg 69%
    13:00 +3°C° 0 mm 3 mps 715 mmHg 66%
    14:00 +2°C° 0.1 mm 3 mps 715 mmHg 71%
    15:00 +2°C° 0.1 mm 2 mps 715 mmHg 77%
    16:00 +1°C° 0.1 mm 2 mps 715 mmHg 82%
    17:00 -1°C° 0 mm 2 mps 715 mmHg 83%
    18:00 -1°C° 0 mm 2 mps 715 mmHg 84%
    19:00 -1°C° 0 mm 2 mps 715 mmHg 85%
    20:00 -1°C° 0.1 mm 2 mps 715 mmHg 85%
    21:00 -1°C° 0.1 mm 3 mps 715 mmHg 85%
    22:00 -1°C° 0.1 mm 3 mps 715 mmHg 85%
    23:00 -1°C° 0.1 mm 3 mps 715 mmHg 86%

    Day after tomorrow, 20 November, Monday

    Time Temperature Precipitation Wind Pressure Humidity
    00:00 -1°C° 0.1 mm 3 mps 715 mmHg 88%
    01:00 -1°C° 0.1 mm 2 mps 715 mmHg 89%
    02:00 -1°C° 0.1 mm 3 mps 715 mmHg 88%
    03:00 -1°C° 0.1 mm 3 mps 715 mmHg 88%
    04:00 -1°C° 0.1 mm 3 mps 715 mmHg 88%
    05:00 -1°C° 0.3 mm 3 mps 715 mmHg 87%
    06:00 -2°C° 0.3 mm 4 mps 715 mmHg 87%
    07:00 -2°C° 0.3 mm 4 mps 715 mmHg 87%
    08:00 -1°C° 0.3 mm 4 mps 716 mmHg 86%
    09:00 -1°C° 0.3 mm 4 mps 716 mmHg 84%
    10:00 -1°C° 0.3 mm 5 mps 717 mmHg 83%
    11:00 -1°C° 0.3 mm 5 mps 717 mmHg 81%
    12:00 0°C° 0.3 mm 5 mps 717 mmHg 79%
    13:00 -1°C° 0.3 mm 6 mps 718 mmHg 77%
    14:00 -1°C° 0 mm 5 mps 718 mmHg 80%
    15:00 -2°C° 0 mm 4 mps 718 mmHg 82%
    16:00 -2°C° 0 mm 3 mps 718 mmHg 84%
    17:00 -2°C° 0 mm 2 mps 718 mmHg 85%
    18:00 -3°C° 0 mm 2 mps 719 mmHg 86%
    19:00 -3°C° 0 mm 2 mps 719 mmHg 87%
    20:00 -3°C° 0 mm 2 mps 719 mmHg 87%
    21:00 -2°C° 0 mm 2 mps 719 mmHg 87%
    22:00 -2°C° 0 mm 2 mps 719 mmHg 87%
    23:00 -2°C° 0 mm 2 mps 719 mmHg 87%

    21 November, Tuesday

    Time Temperature Precipitation Wind Pressure Humidity
    00:00 -2°C° 0 mm 2 mps 719 mmHg 87%
    01:00 -2°C° 0 mm 2 mps 718 mmHg 86%
    02:00 -2°C° 0.2 mm 2 mps 718 mmHg 87%
    03:00 -1°C° 0.2 mm 2 mps 717 mmHg 88%
    04:00 -1°C° 0.2 mm 2 mps 716 mmHg 89%
    05:00 -1°C° 0.5 mm 2 mps 716 mmHg 90%
    06:00 -1°C° 0.5 mm 2 mps 715 mmHg 92%
    07:00 -1°C° 0.5 mm 2 mps 715 mmHg 93%
    08:00 +1°C° 0.4 mm 2 mps 715 mmHg 93%
    09:00 +1°C° 0.4 mm 2 mps 715 mmHg 93%
    10:00 +3°C° 0.4 mm 1 mps 715 mmHg 93%
    11:00 +3°C° 0.1 mm 1 mps 715 mmHg 93%
    12:00 +3°C° 0.1 mm 1 mps 715 mmHg 93%
    13:00 +4°C° 0.1 mm 1 mps 715 mmHg 93%
    14:00 +3°C° 0 mm 1 mps 716 mmHg 94%
    15:00 +3°C° 0 mm 1 mps 716 mmHg 95%
    16:00 +3°C° 0 mm 1 mps 716 mmHg 96%
    17:00 +3°C° 0 mm 1 mps 717 mmHg 97%
    18:00 +3°C° 0 mm 1 mps 717 mmHg 97%
    19:00 +1°C° 0 mm 0 mps 717 mmHg 97%
    20:00 +1°C° 0.1 mm 0 mps 718 mmHg 97%
    21:00 +1°C° 0.1 mm 0 mps 718 mmHg 97%
    22:00 +1°C° 0.1 mm 0 mps 718 mmHg 97%
    23:00 +1°C° 0 mm 0 mps 719 mmHg 97%

    22 November, Wednesday

    Time Temperature Precipitation Wind Pressure Humidity
    00:00 +1°C° 0 mm 0 mps 719 mmHg 96%
    01:00 0°C° 0 mm 0 mps 719 mmHg 96%
    02:00 0°C° 0 mm 0 mps 719 mmHg 96%
    03:00 0°C° 0 mm 0 mps 719 mmHg 95%
    04:00 0°C° 0 mm 0 mps 720 mmHg 95%
    05:00 -1°C° 0 mm 0 mps 720 mmHg 95%
    06:00 -1°C° 0 mm 0 mps 720 mmHg 94%
    07:00 0°C° 0 mm 1 mps 720 mmHg 94%
    08:00 +1°C° 0 mm 1 mps 721 mmHg 93%
    09:00 +3°C° 0 mm 1 mps 721 mmHg 91%
    10:00 +4°C° 0 mm 1 mps 721 mmHg 90%
    11:00 +3°C° 0 mm 2 mps 721 mmHg 90%
    12:00 +4°C° 0 mm 2 mps 721 mmHg 91%
    13:00 +5°C° 0 mm 2 mps 721 mmHg 91%
    14:00 +4°C° 0 mm 2 mps 721 mmHg 92%
    15:00 +3°C° 0 mm 2 mps 721 mmHg 93%
    16:00 +3°C° 0 mm 2 mps 721 mmHg 94%
    17:00 +3°C° 0 mm 2 mps 721 mmHg 94%
    18:00 +2°C° 0 mm 2 mps 721 mmHg 94%
    19:00 +2°C° 0 mm 2 mps 721 mmHg 94%
    20:00 +2°C° 0 mm 2 mps 722 mmHg 93%
    21:00 +2°C° 0 mm 2 mps 722 mmHg 93%
    22:00 +2°C° 0 mm 2 mps 722 mmHg 92%
    23:00 +2°C° 0 mm 2 mps 722 mmHg 92%

    23 November, Thursday

    Time Temperature Precipitation Wind Pressure Humidity
    00:00 +2°C° 0 mm 2 mps 722 mmHg 91%
    01:00 +2°C° 0 mm 2 mps 722 mmHg 91%
    02:00 +2°C° 0 mm 2 mps 722 mmHg 91%
    03:00 +2°C° 0 mm 2 mps 722 mmHg 90%
    04:00 +2°C° 0 mm 2 mps 722 mmHg 90%
    05:00 +2°C° 0 mm 2 mps 722 mmHg 90%
    06:00 +2°C° 0 mm 2 mps 723 mmHg 89%
    07:00 +2°C° 0 mm 2 mps 723 mmHg 89%
    08:00 +3°C° 0 mm 2 mps 723 mmHg 88%
    09:00 +4°C° 0 mm 2 mps 723 mmHg 88%
    10:00 +5°C° 0 mm 2 mps 724 mmHg 87%
    11:00 +6°C° 0 mm 2 mps 724 mmHg 87%
    12:00 +6°C° 0 mm 2 mps 724 mmHg 87%
    13:00 +7°C° 0 mm 2 mps 724 mmHg 87%
    14:00 +6°C° 0 mm 2 mps 724 mmHg 88%
    15:00 +5°C° 0 mm 2 mps 724 mmHg 90%
    16:00 +4°C° 0 mm 2 mps 724 mmHg 91%
    17:00 +3°C° 0 mm 3 mps 724 mmHg 91%
    18:00 +2°C° 0 mm 3 mps 724 mmHg 91%
    19:00 +2°C° 0 mm 3 mps 724 mmHg 91%
    20:00 +3°C° 0 mm 2 mps 725 mmHg 91%
    21:00 +3°C° 0 mm 2 mps 725 mmHg 92%
    22:00 +3°C° 0 mm 2 mps 725 mmHg 92%
    23:00 +3°C° 0 mm 2 mps 725 mmHg 92%
    Show more